Вернуться в каталог

STARLINK-4122

АктивенСвязьVLEO
NORAD 53272·PAYLOAD·🇺🇸 United States

Запущен Jul 24, 2022 с Cape Canaveral Space Force Station

Loading…

Ближайшие Пролёты (ближайшие 24 часа)

TLE

СвежийSource: CelesTrak SupGP

Эпоха: Sep 14, 2026, 21:39 UTC

1 53272C 22086AG  26257.90256944  .00014176  00000+0  41881-3 0  2578
2 53272  53.1593  39.5371 0001218  74.6132 225.3589 15.34385142    11

Отслеживайте STARLINK-4122 в реальном времени с AllMySat

Download on the App Store